Location: Unspecified
(29.9680°N, 0.0000°E)
Time: 17:31:37
(UTC+00:00)

Explorer 7 - Pass Details

Date: 04 July 2019
Orbit: 485 x 680 km, 50.3° (Epoch: 21 July)

Event Time Altitude Azimuth Distance (km) Brightness Sun altitude
Rises 02:55:44 0° 220° (SW) 2,537 - -23.0°
Reaches altitude 10° 02:57:52 10° 219° (SW) 1,669 - -22.7°
Maximum altitude 03:01:37 74° 134° (SE) 522 - -22.1°
Exits shadow 03:01:41 74° 122° (ESE) 523 6.6 -22.1°
Drops below altitude 10° 03:05:33 10° 49° (NE) 1,745 10.5 -21.5°
Sets 03:07:49 0° 48° (NE) 2,665 11.9 -21.2°
